Regional Weather Roundup
Issued by NWS

Home | Current Version | Previous Version | Graphics & Text | Print | Product List | Glossary On
Versions: 1 2 3 4 5 6 7 8 9 10 11 12 13 14 15 16 17 18 19 20 21 22 23 24 25 26 27 28 29 30 31 32 33 34 35 36 37 38 39 40 41 42 43 44 45 46 47 48 49 50
000
ASUS43 KBIS 201602
RWRND

NORTH DAKOTA REGIONAL WEATHER ROUNDUP
NATIONAL WEATHER SERVICE BISMARCK ND
1000 AM CST FRI JAN 20 2017

NOTE: "FAIR" INDICATES FEW OR NO CLOUDS BELOW 12,000 FEET WITH NO
SIGNIFICANT WEATHER AND/OR OBSTRUCTIONS TO VISIBILITY.


NDZ001>003-009>011-017-201700-
NORTHWEST NORTH DAKOTA

CITY           SKY/WX    TMP DP  RH WIND       PRES   REMARKS
WILLISTON      FAIR      15  13  91 SW3       29.39F
MINOT          FAIR      21  17  84 E3        29.39R
MINOT AFB      SUNNY     17  15  90 CALM      29.38S
$$

NDZ018>021-031>035-040>046-201700-
SOUTHWEST NORTH DAKOTA

CITY           SKY/WX    TMP DP  RH WIND       PRES   REMARKS
BISMARCK       FOG       24  22  91 W6        29.43R VSB 3/4 WCI  17
DICKINSON      FAIR      25  22  88 W12       29.34F WCI  14
GARRISON         N/A     15  13  91 CALM      29.39R
HETTINGER ARPT CLOUDY    30  26  85 NW12      29.36F
$$

NDZ004>008-012>016-024-026-027-054-201700-
NORTHEAST NORTH DAKOTA

CITY           SKY/WX    TMP DP  RH WIND       PRES   REMARKS
GRAND FORKS    FOG       36  33  89 SE12      29.51R VSB 1
GRND FRKS AFB  FOG       36  34  93 SE10      29.51R VSB 3/4
DEVILS LAKE    MIX PCPN  33  33 100 SE8       29.45F VSB 1
$$

NDZ022-023-025-028>030-036>039-047>053-201700-
SOUTHEAST NORTH DAKOTA

CITY           SKY/WX    TMP DP  RH WIND       PRES   REMARKS
FARGO          CLOUDY   N/A N/A N/A SE10      29.52R FOG
JAMESTOWN      FOG       33  33 100 SE10      29.43S VSB 3/4
$$




USA.gov is the U.S. government's official web portal to all federal, state and local government web resources and services.